User: anonymous   Login
Location: Unspecified
(0.0000°N, 0.0000°E)
Time: 08:34:08
(UTC+00:00)
Language:

Shinsei - Orbit

View from above orbital plane
View from above orbital plane
View from above satellite
View from above satellite

Ground track
Ground track

The orbit data is extracted from the following two-line orbital elements,

1  5485U 71080A   21131.03773712  .00000043  00000-0  39405-4 0  9998
2  5485  32.0561 244.1349 0640427 321.1946  34.4281 12.74142845311653
Epoch (UTC): 11 May 2021 00:54:20
Eccentricity: 0.0640427
inclination: 32.0561°
perigee height: 869 km
apogee height: 1861 km
right ascension of ascending node: 244.1349°
argument of perigee: 321.1946°
revolutions per day: 12.74142845
mean anomaly at epoch: 34.4281°
orbit number at epoch: 31165

The dashed part of the orbit path shows where the satellite is in the earth's shadow,  

DLR